Wind_Speed
85 86 87 87 88 89 90 91 91 92 93 94 95 95 96 97 98 99 100 100 101 102 103 103 104 105 105 106 106 106 106 106 106 105 105 105 105 104 104 104 104 104 104 104 104 104 104 104 104 104 104 104 104 104 104 105 105 106 106 107 108 108 110 111 112 113 115 116 118 119 121 122 123 124 125 126 126 126 126 126 125 124 124 123 122 122
85 85 86 86 87 88 88 89 90 90 91 91 92 93 93 94 95 96 97 98 99 100 101 101 102 103 104 104 104 105 105 105 105 104 104 104 104 104 103 103 103 103 103 104 104 104 104 104 104 104 104 105 105 105 105 106 106 107 108 109 110 111 112 114 115 117 118 120 121 122 124 125 126 126 127 127 126 126 125 124 123 122 122 121 121 121
84 84 84 85 85 86 87 87 88 88 88 89 89 90 90 91 92 93 94 95 96 97 98 99 100 101 101 102 103 103 103 103 103 103 103 103 103 103 103 103 103 103 104 104 104 104 105 105 105 105 105 106 106 106 107 108 108 109 110 112 113 114 116 117 118 120 121 123 124 125 126 126 126 127 126 126 125 124 123 122 121 120 120 120 121 121
82 82 83 83 83 83 84 85 85 86 86 86 87 87 88 89 90 90 91 93 94 95 96 97 97 98 99 100 101 101 101 102 102 102 102 102 102 103 103 103 103 103 104 104 104 105 105 105 106 106 107 107 108 109 110 111 111 113 114 115 116 117 119 120 121 122 123 124 125 126 126 126 126 125 124 123 122 121 120 120 120 120 120 121 122 122
79 80 80 80 81 81 82 82 83 83 84 84 84 85 85 86 87 88 89 90 91 93 94 95 96 97 97 98 99 99 100 100 101 101 102 102 102 102 103 103 103 104 104 105 105 106 107 107 108 108 109 110 111 112 113 114 115 116 117 118 119 120 121 122 123 123 124 124 125 125 125 124 124 123 123 122 121 120 120 120 120 120 121 122 123 123
77 77 78 78 79 79 80 81 81 81 82 82 82 83 84 85 86 86 88 89 90 91 92 93 94 95 96 97 98 99 99 100 100 101 101 102 102 103 103 104 104 105 106 106 107 108 109 110 111 111 112 113 114 115 116 117 118 118 119 120 120 121 121 122 122 122 123 123 123 123 123 123 122 122 121 121 120 120 120 120 121 122 122 122 122 122
76 76 76 77 77 78 79 79 80 80 81 81 82 82 83 84 85 86 87 88 90 91 92 93 94 95 96 97 98 99 99 100 100 101 102 103 103 104 104 105 106 107 108 109 110 111 112 113 114 115 115 116 117 118 118 118 119 119 119 119 119 119 120 120 120 120 121 121 121 121 122 122 122 121 121 121 120 120 121 121 121 121 121 120 119 118
75 75 76 77 77 78 79 79 80 80 81 81 82 83 83 84 85 86 87 89 90 91 92 93 94 95 97 98 99 99 100 101 101 102 103 104 105 106 107 108 109 110 111 112 113 114 115 116 116 117 117 118 118 118 118 118 118 118 117 117 117 117 118 118 118 119 120 121 121 121 122 122 122 121 121 120 120 120 119 119 118 118 116 115 113 112
76 77 77 78 78 79 80 81 81 81 81 82 83 84 84 85 86 87 88 89 90 91 93 94 95 97 98 99 100 101 102 103 103 105 106 107 108 109 110 111 112 113 114 115 116 116 117 117 117 117 117 117 117 117 116 116 116 115 115 115 115 116 116 117 118 119 120 121 122 122 122 122 121 120 119 118 117 116 115 115 113 112 110 108 107 105
77 78 79 79 80 80 82 82 83 83 83 83 84 85 85 86 87 88 89 90 92 93 94 96 98 99 101 102 103 104 105 106 106 107 109 110 111 112 113 113 114 115 115 116 116 116 116 116 116 115 115 115 115 114 114 114 114 114 114 115 115 116 117 118 119 120 121 122 122 122 121 120 118 117 115 113 112 111 110 108 107 105 104 102 101 100
79 80 81 82 82 82 83 84 84 85 85 85 86 87 87 88 89 90 92 93 95 96 97 99 100 102 104 105 106 107 107 108 109 110 111 111 112 113 113 113 114 114 114 115 115 115 114 114 114 114 113 113 113 113 113 113 114 114 115 115 116 117 118 119 120 120 120 120 120 119 117 115 113 111 109 107 106 105 104 102 101 99 98 97 96 95
82 82 83 84 84 85 85 86 86 87 87 88 89 90 90 91 91 93 94 96 97 99 100 102 103 104 106 107 108 109 109 109 110 110 111 111 111 112 112 112 112 112 112 113 113 113 113 113 113 113 113 113 114 114 114 114 114 115 115 116 116 117 117 117 118 117 117 116 115 113 111 109 107 104 102 101 100 99 98 97 95 94 93 92 91 90
84 84 85 86 86 87 88 88 89 89 90 91 92 93 94 94 95 95 97 98 99 100 101 102 104 105 106 107 107 108 108 108 108 108 109 109 110 110 110 111 111 111 111 112 112 113 113 113 113 114 114 114 114 114 114 114 114 114 114 114 114 114 114 113 113 112 111 110 108 107 105 102 100 98 96 95 94 94 93 92 91 90 89 88 87 87
86 87 87 88 89 89 90 90 91 92 93 93 94 94 95 96 96 97 97 98 99 99 100 101 102 103 105 105 106 106 106 106 106 106 107 108 109 110 110 111 111 112 112 113 113 114 114 114 114 114 115 114 114 114 113 113 112 111 110 110 109 109 108 107 107 106 105 103 102 100 98 96 94 92 91 90 90 89 88 87 86 86 85 84 84 83
88 89 89 90 91 91 92 92 93 94 94 94 94 95 95 95 96 96 96 97 97 98 98 99 100 102 103 104 105 105 105 105 105 106 107 109 110 111 111 112 112 113 113 114 114 115 114 114 114 114 113 113 112 111 109 108 107 105 104 103 103 102 102 101 101 100 99 97 96 95 93 91 89 88 87 86 86 85 84 83 83 82 81 81 80 80
89 90 91 91 92 92 93 93 93 93 93 93 93 93 94 94 95 95 95 96 96 97 98 99 100 101 103 104 105 105 105 105 105 106 108 109 111 112 112 112 113 113 114 114 114 114 113 113 112 111 110 109 107 105 103 102 100 99 97 97 96 96 96 96 95 94 94 92 91 90 88 86 85 83 83 82 82 82 81 80 79 79 78 78 77 76
90 90 91 91 92 92 92 92 92 92 92 92 92 93 93 94 94 95 96 96 97 98 98 99 101 103 104 106 106 106 106 106 106 107 108 110 111 112 112 112 112 112 112 112 111 110 109 108 107 106 104 103 101 99 97 95 93 92 91 91 91 91 91 91 90 90 89 88 87 85 84 82 81 80 79 79 79 78 77 77 76 75 75 74 74 73
90 90 90 90 91 91 91 91 91 91 91 92 92 93 94 95 96 96 97 98 99 99 100 101 102 104 105 107 108 108 107 106 106 107 107 108 109 110 110 109 109 108 108 107 107 106 104 103 102 100 99 97 95 93 91 89 88 86 86 86 86 86 86 86 86 86 85 84 83 81 80 78 77 76 76 75 75 75 74 73 73 72 72 71 71 70
90 90 89 89 90 90 90 91 91 92 92 93 94 95 96 97 98 99 99 100 101 101 102 103 104 105 105 106 107 107 106 105 105 105 105 105 106 106 106 105 104 104 103 102 101 100 99 98 97 95 94 92 90 87 85 84 83 82 81 81 81 82 82 82 82 82 81 80 79 78 76 75 74 73 72 72 72 71 71 70 70 69 69 68 68 67
89 89 89 89 90 91 91 92 93 94 94 95 96 97 98 99 100 101 101 102 102 103 103 104 104 105 105 105 105 105 104 102 101 101 101 101 102 102 102 101 100 99 99 98 96 95 94 93 92 90 89 87 85 83 81 79 78 78 77 77 77 78 78 79 79 78 78 76 75 74 73 71 70 69 69 69 69 68 68 67 67 66 66 65 65 65
90 90 90 90 91 93 94 95 96 96 97 98 98 99 100 101 101 102 102 103 103 103 103 103 103 103 103 103 103 102 100 99 97 97 96 97 98 98 98 97 96 95 94 93 92 91 89 88 87 86 84 82 81 79 77 75 74 74 73 73 74 74 75 75 75 75 74 73 72 70 69 68 67 66 66 66 66 65 65 64 64 64 63 63 63 62
91 92 92 93 94 95 97 98 98 99 99 100 101 101 102 102 102 103 103 102 102 102 102 102 102 101 101 100 100 98 97 95 93 93 92 93 94 94 94 93 92 91 90 90 88 87 86 85 83 82 80 79 77 75 73 72 71 70 70 69 70 70 71 71 72 71 71 69 68 67 66 65 64 63 63 63 63 63 62 62 62 61 61 60 60 60
93 94 95 96 97 98 99 100 101 101 101 102 102 102 102 102 103 102 102 102 101 101 100 100 99 99 98 97 97 95 93 91 90 89 88 89 90 90 90 89 88 88 87 86 85 84 83 82 81 79 77 75 73 71 69 68 67 66 66 66 66 66 67 68 68 68 68 66 65 64 63 62 61 61 60 60 60 60 60 60 59 59 59 58 58 58
96 97 98 99 100 101 101 102 103 103 103 103 102 102 102 102 101 101 100 99 99 98 97 97 96 96 95 94 94 92 90 88 86 85 85 85 86 87 87 86 85 85 84 83 82 82 81 79 78 77 75 72 70 68 66 64 63 62 62 62 62 63 64 65 65 66 65 64 63 61 60 59 59 58 58 58 58 58 58 57 57 57 57 57 56 56
99 100 101 102 103 103 104 104 104 104 103 103 103 102 101 100 100 99 98 97 96 95 94 94 93 93 92 91 90 89 87 85 83 82 81 82 83 83 84 83 82 82 82 81 80 79 78 77 76 74 72 69 67 65 62 61 59 59 58 58 59 60 61 62 63 63 63 62 60 59 58 57 56 56 56 56 56 56 55 55 55 55 55 55 55 54
102 103 104 104 105 105 105 105 104 104 103 102 101 101 100 99 98 96 95 94 93 92 91 90 90 89 88 88 87 86 84 82 80 78 78 78 79 80 80 80 79 79 78 78 77 76 76 75 73 72 69 67 64 62 60 58 56 55 55 55 56 57 58 60 61 61 61 60 59 57 56 55 54 54 54 54 54 54 54 54 54 53 53 53 53 53
104 105 105 106 106 105 105 105 104 103 102 100 99 98 97 96 95 94 93 91 90 89 88 87 86 86 85 85 84 83 82 80 77 76 75 76 76 77 77 77 76 76 75 75 74 74 73 72 71 69 67 65 62 60 57 55 54 52 52 53 54 55 56 58 59 59 59 58 57 56 54 53 53 52 52 52 52 52 52 52 52 52 52 51 51 51
106 106 106 106 106 105 105 104 103 101 100 98 97 95 94 93 92 91 90 88 87 86 85 84 83 83 82 82 82 81 80 78 76 74 73 73 74 74 74 74 73 73 72 72 72 71 70 70 68 67 65 63 61 58 56 54 52 51 51 51 52 54 55 56 57 58 58 58 56 55 53 52 51 51 51 51 50 50 50 50 50 50 50 50 50 50
107 107 106 106 105 104 103 102 100 99 97 95 94 92 91 90 88 87 86 85 84 83 82 81 81 80 80 80 79 79 78 76 73 71 70 71 71 71 71 71 70 70 69 69 69 69 69 68 67 65 63 62 60 58 55 53 51 50 50 50 51 53 54 55 56 57 57 57 56 54 52 51 50 50 49 49 49 49 49 49 49 49 49 49 49 49
107 107 106 105 103 102 101 99 98 96 94 93 91 90 88 86 85 84 83 82 81 80 79 79 78 78 77 77 77 76 75 74 71 69 68 68 69 68 68 68 68 68 67 67 67 67 67 67 66 64 62 61 59 57 55 52 51 49 49 50 51 52 53 54 55 56 56 56 55 53 52 50 49 49 48 48 48 48 48 48 48 48 48 48 48 48
107 106 105 103 101 100 98 96 95 93 92 90 89 87 85 84 82 81 80 79 78 77 77 76 76 75 75 74 74 74 73 71 69 67 66 66 67 66 66 67 66 66 66 66 66 66 66 66 65 63 62 60 58 57 55 52 51 49 49 49 50 51 53 54 55 55 56 55 54 53 51 49 48 48 47 47 47 47 47 47 47 47 47 47 47 47
105 104 102 101 99 98 96 94 93 91 90 88 86 84 83 81 80 78 77 77 76 75 74 74 73 73 72 71 71 71 70 69 67 66 65 65 65 65 65 66 66 65 65 65 64 64 64 65 64 63 61 60 58 56 54 52 50 49 48 49 50 51 52 53 54 55 55 55 54 52 50 49 47 47 47 47 47 47 47 46 46 46 46 46 46 45
103 101 100 98 96 95 93 92 90 89 87 85 83 82 80 79 78 77 76 75 74 73 72 71 71 70 69 69 69 68 68 67 66 65 64 64 65 65 64 65 64 64 64 63 63 63 62 62 62 62 61 59 57 55 53 51 49 48 48 48 49 50 51 52 53 54 54 54 53 52 50 48 47 46 46 46 46 46 46 46 45 45 45 45 44 44
100 98 97 95 94 92 91 89 88 86 84 82 81 79 78 77 76 75 74 73 71 71 70 69 68 68 67 67 67 66 66 65 64 64 63 63 63 63 63 63 63 63 62 62 61 61 60 60 60 59 59 58 56 54 52 50 48 47 46 47 48 49 51 52 53 53 53 53 52 51 49 47 46 46 45 45 45 45 45 45 45 44 44 43 43 43
96 95 94 92 91 90 88 86 85 83 81 80 78 77 76 75 74 73 72 70 69 68 67 67 66 66 66 65 65 65 65 64 64 63 62 62 61 61 61 61 61 60 60 59 59 58 57 57 56 56 56 55 54 52 50 48 46 45 45 46 47 48 50 51 52 52 52 52 51 50 48 46 45 45 45 45 45 45 45 44 44 43 42 42 41 41
94 92 91 90 88 87 85 83 82 80 79 77 76 75 74 72 71 70 69 68 67 67 66 66 65 65 64 64 64 63 63 63 62 62 61 60 59 59 59 59 58 58 57 56 56 55 54 54 53 53 52 52 51 50 48 46 45 44 44 45 46 47 49 50 51 51 51 51 50 48 47 45 44 44 44 44 44 44 44 43 42 41 41 40 40 40
91 90 88 87 85 84 82 80 79 77 76 75 74 72 71 70 69 68 67 67 66 65 65 65 64 64 63 62 62 61 61 61 60 60 59 58 58 57 57 56 56 55 54 53 52 52 51 50 50 49 49 49 48 47 46 44 43 42 42 44 45 46 47 48 49 49 49 49 48 46 45 44 43 43 43 43 43 43 43 42 41 40 39 39 39 39
88 87 85 83 82 80 79 78 76 75 74 72 71 70 68 68 67 66 66 66 65 65 65 64 63 63 62 61 59 59 58 58 58 58 57 57 56 55 54 53 53 52 50 50 49 48 47 47 47 46 46 46 45 44 43 42 41 41 41 42 44 45 46 47 47 48 47 46 45 44 43 42 42 42 42 42 42 42 41 40 39 38 37 38 38 39
85 84 82 80 79 77 76 75 74 72 71 69 68 67 66 66 66 66 65 65 65 64 64 63 63 62 60 59 58 56 56 56 55 55 55 54 53 52 52 51 50 49 47 46 45 44 44 44 44 43 43 43 42 41 40 40 39 40 40 41 42 43 44 45 45 45 45 44 43 42 41 41 41 41 41 41 41 40 39 38 37 36 36 37 37 38
82 81 79 77 76 75 73 72 71 69 68 67 66 65 65 65 65 65 65 64 64 63 62 62 61 60 58 57 55 54 53 53 53 53 53 52 51 50 49 47 46 45 44 43 42 41 41 41 41 41 40 39 39 38 37 37 37 38 38 39 40 40 41 42 42 43 42 42 41 40 39 39 39 39 40 39 39 38 37 36 35 35 36 36 37 38
79 77 76 75 73 72 71 69 68 67 65 65 64 64 64 65 65 65 64 63 62 61 60 59 58 57 56 55 53 52 51 51 51 51 50 49 48 47 46 44 43 42 41 40 39 38 38 38 38 37 37 36 35 35 34 35 35 36 36 37 37 38 38 39 40 40 39 39 38 38 37 37 38 38 37 37 36 35 35 34 34 35 35 36 37 38
76 75 73 72 71 69 68 67 65 64 64 63 63 64 64 64 63 63 63 61 60 59 58 57 56 55 54 52 51 50 49 48 48 48 47 46 45 44 42 41 40 39 38 37 36 36 35 35 34 34 33 33 32 32 32 32 33 33 34 34 35 35 36 37 37 37 37 36 36 35 35 35 35 35 35 35 34 34 34 34 34 34 35 36 36 37
73 72 71 69 68 67 65 64 63 63 62 62 62 62 62 62 61 61 60 59 58 57 56 55 54 53 52 51 49 48 47 46 46 45 45 44 42 41 39 38 37 36 35 34 33 33 32 32 31 31 31 30 30 30 30 30 31 31 31 32 32 33 34 34 35 34 34 34 33 33 33 33 33 33 33 33 33 33 33 33 33 34 34 35 36 36
71 69 68 67 65 64 63 62 62 62 62 62 61 61 60 59 59 58 57 56 55 55 54 53 52 51 50 49 47 46 45 44 43 43 42 41 39 38 37 35 34 33 32 32 31 30 30 29 29 29 28 28 28 28 28 28 29 29 29 29 30 30 31 32 32 32 31 31 31 31 31 31 31 31 31 31 32 32 32 32 32 33 33 34 35 35
68 67 65 64 63 62 61 61 61 61 61 60 60 59 58 57 56 55 54 53 53 52 51 50 49 49 48 47 45 44 43 42 41 40 39 38 37 35 34 33 32 31 30 29 28 28 28 27 27 27 26 26 26 26 26 26 26 27 27 27 28 28 29 29 29 29 29 29 29 29 30 30 30 30 30 30 30 30 30 31 31 31 32 33 33 34
65 64 62 61 61 60 60 60 60 60 59 59 58 57 56 55 54 53 52 51 50 49 49 48 47 46 45 44 43 42 40 39 38 37 36 35 34 33 32 30 29 29 28 27 26 26 25 25 25 25 24 24 24 24 24 24 24 24 25 25 26 26 26 27 27 27 27 28 28 28 28 28 29 29 29 29 28 28 29 29 30 30 31 31 32 32
62 61 60 60 59 59 59 59 59 59 58 57 56 55 53 53 52 51 50 49 48 47 46 45 44 43 42 41 40 39 38 37 36 35 33 32 31 30 29 28 27 27 26 25 25 24 24 23 23 23 22 22 22 22 22 22 22 23 23 24 24 24 25 25 26 26 26 26 26 27 27 27 27 27 26 26 26 26 27 27 28 29 30 30 30 31
59 59 58 58 59 59 59 58 58 57 56 55 54 53 52 50 50 49 48 47 46 45 44 43 42 41 40 39 38 37 35 34 33 32 31 30 29 28 27 26 25 25 24 23 23 23 22 22 21 21 21 21 21 21 21 21 21 21 22 22 23 23 23 24 24 24 24 25 25 25 25 25 24 24 24 24 24 25 26 27 28 29 29 29 30 30
57 57 57 58 58 58 58 57 57 56 55 53 52 51 50 49 48 47 46 45 44 42 41 40 39 38 37 36 35 34 33 32 30 29 28 27 26 26 25 24 24 23 23 22 22 21 21 21 20 20 20 20 20 20 20 20 21 21 21 21 21 22 22 22 23 23 23 23 23 23 23 23 22 22 22 22 23 24 25 26 27 28 28 29 29 30
56 56 56 57 57 57 56 56 55 54 53 52 50 49 48 47 46 45 44 43 42 40 39 38 37 36 35 34 33 32 31 29 28 27 26 25 25 24 23 23 22 22 21 21 21 20 20 20 20 19 19 19 19 19 19 20 20 20 20 20 20 20 20 21 21 21 21 21 21 21 21 21 21 21 21 22 23 24 25 26 27 27 28 28 28 29
55 55 56 56 56 55 55 54 53 52 51 50 49 48 47 46 45 43 42 41 40 38 37 36 35 34 33 32 31 30 29 28 26 25 25 24 23 22 22 21 21 21 20 20 20 20 19 19 19 19 19 18 18 18 18 18 18 18 19 19 19 18 19 19 19 19 19 19 19 19 19 20 20 21 21 22 23 24 25 25 26 26 26 26 27 27
Wind_Direction
282 282 282 281 281 281 281 280 280 280 279 279 279 279 279 279 279 279 279 279 279 278 278 278 278 278 278 278 278 278 278 279 279 279 279 279 279 280 280 280 280 280 280 280 280 280 280 279 279 279 279 278 278 278 278 277 277 277 277 277 276 276 276 276 276 276 276 276 275 275 275 275 275 275 275 275 275 275 275 275 275 275 275 275 275 274
283 283 283 282 282 281 281 281 280 280 280 280 280 280 279 279 279 279 279 279 279 278 278 278 278 278 278 278 278 279 279 279 279 279 280 280 280 280 280 280 281 281 281 280 280 280 280 280 279 279 279 279 278 278 278 278 278 277 277 277 277 277 277 277 276 276 276 276 276 276 276 276 276 275 275 275 275 275 275 275 275 275 275 275 275 274
285 284 284 283 283 283 282 282 281 281 281 280 280 280 280 280 280 279 279 279 279 279 279 279 279 279 279 279 279 279 279 279 280 280 280 280 281 281 281 281 281 281 281 281 281 280 280 280 280 279 279 279 279 279 278 278 278 278 278 278 277 277 277 277 277 277 277 277 277 276 276 276 276 276 276 275 275 275 276 276 275 275 275 275 275 274
286 286 285 285 284 283 283 283 282 282 282 281 281 281 281 281 280 280 280 280 280 279 279 279 279 279 279 279 280 280 280 280 281 281 281 281 281 282 282 282 282 281 281 281 281 280 280 280 280 280 279 279 279 279 279 279 278 278 278 278 278 278 278 278 277 277 277 277 277 277 276 276 276 276 276 276 276 276 276 276 276 276 275 275 275 275
287 286 286 285 285 284 284 283 283 283 283 282 282 282 282 281 281 281 281 280 280 280 280 280 280 280 280 280 281 281 281 281 282 282 282 282 282 282 282 282 282 281 281 281 281 280 280 280 280 280 280 279 279 279 279 279 279 278 278 278 278 278 278 278 278 277 277 277 277 276 276 276 276 276 276 276 276 276 277 277 276 276 276 275 275 275
287 287 286 286 285 285 284 284 284 283 283 283 283 282 282 282 282 282 281 281 281 281 281 281 281 281 281 282 282 282 282 282 282 282 282 282 282 282 282 282 282 281 281 281 281 280 280 280 280 280 280 279 279 279 279 279 279 279 278 278 278 278 278 278 278 277 277 277 277 277 276 276 276 276 277 277 277 277 277 277 277 276 276 276 275 275
288 287 287 286 286 285 285 284 284 284 284 284 283 283 283 283 282 282 282 282 282 282 282 282 282 282 282 282 283 283 283 283 283 283 283 282 282 282 282 282 282 281 281 281 281 281 280 280 280 280 280 280 279 279 279 279 279 279 279 278 278 278 278 278 277 277 277 277 277 277 277 277 277 277 277 278 278 278 278 277 277 277 276 276 275 275
288 287 287 286 286 286 285 285 284 284 284 284 284 284 284 283 283 283 283 283 283 283 283 283 284 283 283 283 283 283 283 283 283 283 283 282 282 282 282 282 282 281 281 281 281 281 280 280 280 280 280 280 279 279 279 279 279 279 279 278 278 278 278 278 278 278 277 277 277 277 277 277 278 278 278 278 278 278 278 277 277 276 276 276 275 275
288 288 287 287 287 286 286 286 286 285 285 285 285 285 285 285 285 285 285 285 285 285 285 285 285 285 284 284 284 284 284 283 283 283 283 283 283 282 282 282 282 282 281 281 281 281 281 280 280 280 280 280 279 279 279 279 279 279 279 279 279 279 278 278 278 278 278 278 278 278 278 278 278 278 279 279 278 278 277 277 276 276 275 275 274 274
289 289 288 288 288 287 287 287 287 287 287 287 286 286 286 286 286 286 286 286 286 286 286 286 286 286 285 285 285 284 284 284 284 283 283 283 283 283 283 282 282 282 282 281 281 281 281 280 280 280 280 280 280 279 279 279 279 279 279 279 279 279 279 279 279 279 279 278 278 278 279 279 279 279 279 279 278 278 277 276 276 275 275 274 274 273
290 290 289 289 289 289 289 288 289 289 288 288 288 288 288 288 288 288 288 288 288 287 287 287 286 286 286 285 285 285 285 284 284 284 284 283 283 283 283 283 282 282 282 281 281 281 281 281 280 280 280 280 280 280 280 280 280 280 280 280 280 280 280 279 279 279 279 279 279 279 279 279 279 279 279 278 278 277 276 276 275 275 274 274 273 272
291 291 291 290 290 290 290 290 290 290 290 290 290 290 290 289 289 289 289 289 288 288 288 287 287 286 286 286 285 285 285 285 285 285 284 284 284 283 283 283 282 282 282 282 281 281 281 281 281 281 281 280 280 281 281 281 281 281 281 280 280 280 280 280 279 279 279 279 279 279 279 279 279 278 278 278 277 276 276 275 275 274 274 273 272 272
292 292 292 291 291 291 291 291 291 291 291 291 291 291 291 290 290 290 289 289 288 288 288 288 287 287 286 286 286 285 285 285 285 285 285 284 284 284 283 283 283 282 282 282 282 281 281 281 281 281 281 281 281 281 281 281 281 281 281 281 281 280 280 280 279 279 279 279 279 279 279 278 278 278 278 277 276 276 275 275 274 274 273 272 272 271
293 293 292 292 292 292 292 292 292 292 292 292 292 292 291 291 291 290 290 289 289 288 288 288 287 287 287 286 286 285 285 285 285 285 285 285 284 284 284 283 283 283 283 282 282 282 282 282 282 282 282 282 282 282 282 282 282 282 281 281 281 280 280 280 279 279 279 279 278 278 278 278 278 278 277 276 276 275 275 274 274 273 272 272 271 271
293 293 293 293 293 293 293 293 293 293 293 293 293 292 292 292 291 291 290 290 289 289 288 288 287 287 287 286 286 285 285 285 285 285 285 285 284 284 284 284 284 283 283 283 283 283 282 282 282 282 282 282 282 282 282 282 282 282 281 281 281 280 280 279 279 279 279 278 278 278 278 278 278 277 276 276 275 275 274 274 273 272 272 271 271 270
294 294 294 294 294 294 294 294 294 294 294 294 294 293 293 293 292 291 291 290 290 289 289 288 288 287 287 286 286 286 286 286 286 285 285 285 285 284 284 284 284 284 284 283 283 283 283 283 283 283 283 282 282 282 282 282 282 282 281 281 281 280 280 279 279 279 278 278 278 278 278 278 277 277 276 275 275 274 274 273 273 272 271 271 270 270
295 295 295 295 295 295 295 295 295 295 295 295 295 294 294 293 292 292 291 290 290 289 289 289 288 288 288 287 287 286 286 286 286 286 286 286 285 285 285 285 285 284 284 284 284 284 284 283 283 283 283 283 283 283 283 282 282 282 281 281 280 280 279 279 279 278 278 278 278 278 278 277 277 276 276 275 274 274 273 273 272 271 271 270 270 269
296 296 296 296 296 297 297 296 296 296 296 295 295 294 294 293 293 292 291 291 290 290 290 289 289 288 288 288 288 287 287 287 287 287 287 287 286 286 286 285 285 285 285 284 284 284 284 284 284 284 283 283 283 283 283 283 282 282 281 281 280 280 279 279 279 278 278 278 278 278 277 277 277 276 275 275 274 274 273 272 272 271 270 270 269 269
297 297 298 298 298 298 298 297 297 297 296 296 295 295 294 294 293 293 292 292 291 291 291 290 290 289 289 289 288 288 288 288 288 288 288 288 287 287 286 286 286 285 285 285 285 285 284 284 284 284 284 284 284 283 283 283 282 282 281 281 280 279 279 279 278 278 278 278 278 278 277 277 276 276 275 274 274 273 273 272 271 271 270 269 269 268
299 299 299 299 299 299 299 298 298 297 297 296 296 295 295 294 294 294 293 293 292 292 292 291 291 290 290 290 289 289 289 289 289 289 289 288 288 287 287 287 286 286 286 285 285 285 285 285 284 284 284 284 284 284 283 283 282 282 281 280 280 279 279 278 278 278 278 277 277 277 277 276 276 275 274 274 273 273 272 272 271 270 270 269 269 268
300 300 300 300 300 300 300 299 298 298 297 297 296 296 295 295 295 294 294 294 293 293 293 293 292 292 291 291 290 290 290 290 290 290 290 289 289 288 287 287 287 287 286 286 286 285 285 285 285 284 284 284 284 284 283 283 282 282 281 280 280 279 279 278 278 278 277 277 277 277 276 276 275 275 274 273 273 272 272 271 271 270 270 269 268 268
302 302 301 301 301 300 300 299 299 298 298 297 297 297 296 296 296 296 295 295 295 295 294 294 294 293 292 292 292 291 291 291 291 291 290 290 289 289 288 288 288 287 287 287 286 286 286 285 285 285 284 284 284 284 283 283 282 282 281 280 279 279 278 278 277 277 277 277 276 276 276 275 275 274 273 273 272 272 271 271 270 270 269 269 268 268
303 302 302 302 301 301 300 300 299 299 298 298 298 298 298 297 297 297 297 296 296 296 296 295 295 294 294 293 293 292 292 292 292 291 291 291 290 289 289 289 288 288 288 287 287 287 286 286 285 285 285 284 284 284 283 283 282 281 280 280 279 278 277 277 277 276 276 276 276 275 275 275 274 273 273 272 272 271 271 271 270 270 269 269 268 268
303 303 303 302 302 301 301 300 300 299 299 299 299 299 299 298 298 298 298 297 297 297 296 296 295 295 294 294 293 293 292 292 292 292 292 291 290 290 289 289 289 289 288 288 288 288 287 287 286 286 285 285 284 284 283 282 282 281 280 279 278 277 277 276 276 276 276 275 275 275 274 274 273 273 272 271 271 271 270 270 270 269 269 269 268 268
304 303 303 302 302 301 301 301 301 300 300 300 300 300 300 299 299 299 298 298 298 297 297 296 296 295 295 294 294 293 293 293 293 292 292 292 291 290 290 290 289 289 289 289 289 288 288 287 287 286 286 285 285 284 283 282 281 280 279 278 277 276 276 275 275 275 275 275 274 274 273 273 272 272 271 271 270 270 270 270 270 269 269 269 268 268
304 303 303 302 302 302 302 302 301 301 301 301 301 301 301 300 300 300 299 299 298 298 297 297 296 296 295 295 294 294 293 293 293 293 292 292 291 290 290 290 290 290 289 289 289 288 288 288 287 287 286 286 285 284 283 282 281 280 278 277 276 275 275 274 274 274 274 274 273 273 273 272 272 271 271 270 270 270 270 269 269 269 269 269 268 268
304 303 303 303 303 303 302 302 302 302 302 302 302 301 301 301 301 300 300 299 299 298 298 297 297 296 296 295 295 294 294 294 293 293 293 292 291 291 290 290 290 289 289 289 289 288 288 287 287 287 286 286 285 284 283 282 280 279 278 276 275 274 273 273 273 273 273 273 273 272 272 271 271 270 270 270 269 269 269 269 269 269 269 268 268 268
304 304 303 303 303 303 303 303 303 303 303 302 302 302 302 301 301 301 300 300 299 299 298 298 297 297 296 296 295 295 294 294 294 294 293 293 292 291 291 290 290 290 289 289 288 288 288 287 287 287 286 286 285 284 283 282 280 278 277 275 274 273 272 272 272 272 272 272 272 271 271 270 270 270 269 269 269 269 269 268 269 269 268 268 268 268
304 304 304 304 304 304 303 303 303 303 303 303 303 302 302 302 302 301 301 300 300 299 299 298 298 297 297 296 296 295 295 295 295 295 294 293 292 291 291 290 290 289 289 289 288 288 287 287 286 286 286 285 285 284 283 282 280 278 276 274 273 272 271 271 270 270 271 271 271 271 270 270 269 269 269 268 268 268 268 268 268 268 268 268 268 267
304 304 304 304 304 304 304 304 304 304 304 304 303 303 303 302 302 302 301 301 300 300 299 299 298 298 297 297 296 296 296 296 296 296 295 294 292 292 291 290 290 289 289 288 288 287 287 287 286 286 285 285 284 284 283 281 280 278 276 274 272 271 270 269 269 269 269 270 270 270 269 269 269 268 268 268 268 267 268 268 268 268 268 268 267 267
305 305 305 305 305 305 305 305 305 305 304 304 304 304 303 303 303 302 302 301 301 300 300 299 299 298 298 297 297 297 296 296 296 296 295 294 293 292 291 290 289 289 288 287 287 287 287 286 286 286 285 285 284 283 282 281 280 277 275 273 271 270 269 268 268 268 268 269 269 269 269 268 268 268 267 267 267 267 267 267 267 267 267 267 267 267
305 305 305 305 305 305 305 305 305 305 305 305 305 304 304 304 303 303 303 302 301 301 300 300 299 299 298 298 297 297 297 297 297 296 295 294 293 292 291 290 289 288 288 287 286 286 286 286 286 286 285 285 284 283 282 281 279 277 275 273 271 269 268 267 267 267 267 268 268 268 268 268 267 267 266 266 266 266 266 266 267 267 267 267 267 267
305 305 306 306 306 306 306 306 306 306 306 306 305 305 305 305 304 304 303 303 302 302 301 300 300 299 299 298 298 298 297 297 297 296 295 294 293 292 291 290 289 288 287 287 286 286 286 286 286 286 286 285 284 283 282 281 279 277 275 272 270 268 267 266 266 266 266 267 267 267 267 267 267 266 266 266 266 266 266 266 266 266 266 266 267 267
306 306 306 306 306 306 306 306 306 306 306 306 306 306 306 305 305 304 304 303 303 302 301 301 300 300 299 299 298 298 298 297 297 296 295 294 293 292 291 290 289 288 288 287 287 287 286 286 286 286 286 285 285 284 282 281 279 276 274 271 269 267 266 265 265 265 265 266 266 267 267 267 266 266 265 265 265 265 265 265 266 266 266 266 266 266
306 306 306 307 307 307 307 307 307 307 307 307 307 306 306 306 305 305 304 304 303 302 302 301 301 300 300 300 299 299 298 298 297 296 295 294 293 292 291 290 289 289 288 288 288 288 287 287 286 286 285 285 284 284 282 281 279 276 273 271 268 266 265 265 264 264 265 265 265 266 266 266 266 265 265 264 264 264 265 265 265 266 266 266 266 266
306 307 307 307 307 307 307 307 307 307 307 307 307 307 306 306 305 305 304 304 303 303 302 302 301 301 301 301 300 300 299 299 298 297 296 295 293 292 292 291 290 290 290 289 289 289 288 288 287 286 285 285 284 283 282 280 278 275 272 269 267 265 265 264 264 264 264 265 265 266 266 266 265 264 264 264 264 264 264 264 265 265 266 266 266 266
307 307 307 308 307 307 307 307 307 308 308 308 307 307 307 306 306 305 305 304 304 304 303 303 303 302 302 301 301 301 300 299 298 297 296 295 294 294 293 292 292 291 291 291 291 290 289 288 287 286 285 284 283 282 281 280 278 275 271 268 266 265 264 264 264 264 264 265 265 266 266 265 264 264 263 263 263 263 264 264 265 265 266 265 265 265
308 308 308 308 308 308 308 308 308 308 308 308 308 308 307 307 307 306 306 305 305 305 305 304 304 303 303 303 302 302 301 300 299 298 297 296 296 295 294 294 294 293 293 292 292 291 290 289 288 286 285 284 283 282 281 279 277 274 271 268 266 265 265 264 264 265 265 265 266 266 265 265 264 263 263 262 263 263 264 264 265 265 265 264 264 264
308 308 308 308 308 308 308 308 308 309 309 309 308 308 308 308 308 307 307 307 307 306 306 306 305 305 304 304 303 303 302 301 300 299 298 297 297 296 296 296 295 295 294 294 293 292 290 289 287 286 285 284 283 282 281 279 277 274 271 269 267 266 265 265 265 265 266 266 266 265 265 264 263 262 262 263 263 263 264 265 265 264 264 263 263 263
308 308 308 308 308 309 309 309 309 309 309 309 309 309 309 309 309 309 308 308 308 307 307 306 306 305 305 305 305 304 303 302 301 300 299 299 298 298 298 298 297 297 296 295 293 292 291 289 288 287 286 286 285 284 282 279 276 274 271 269 268 267 266 266 266 266 266 266 266 265 264 263 263 262 262 263 263 264 264 264 264 263 262 262 261 262
308 308 308 309 309 309 309 310 310 310 310 310 311 311 310 310 310 310 309 309 308 308 308 307 307 306 306 306 306 305 304 303 302 301 300 300 300 300 300 299 299 298 297 296 294 293 292 291 290 289 288 287 286 284 282 279 276 274 272 270 269 268 267 266 266 266 266 266 265 265 264 263 263 263 263 263 263 264 263 263 262 261 261 261 261 261
309 309 309 309 310 310 310 310 310 311 311 311 312 312 311 311 311 310 310 310 309 309 309 308 308 308 307 307 307 306 306 304 303 303 302 302 302 302 302 301 300 299 298 297 296 295 294 293 292 291 289 288 286 284 281 278 276 274 272 270 269 268 267 266 266 266 266 266 265 265 264 263 263 263 263 263 262 262 262 261 261 260 260 260 260 261
309 309 310 310 310 311 311 311 311 312 312 312 312 312 312 311 311 311 311 310 310 310 310 310 309 309 309 309 309 308 307 306 305 305 304 304 304 304 303 303 302 301 300 299 298 297 296 294 293 291 289 287 285 283 280 278 276 274 273 271 270 268 267 267 267 267 266 266 265 264 263 263 262 262 261 261 261 261 260 260 260 260 260 260 260 261
309 310 310 311 311 311 311 312 312 312 313 313 313 313 312 312 312 312 312 311 312 311 311 311 311 311 311 311 310 310 309 308 307 307 306 306 306 306 305 304 303 303 302 301 300 299 297 295 293 292 290 288 286 284 281 279 278 276 274 272 271 269 268 268 267 267 266 265 264 263 262 261 261 261 260 260 260 260 260 260 260 260 260 260 261 261
310 310 311 311 312 312 312 312 313 313 313 313 313 313 313 313 313 313 313 313 313 313 313 313 312 312 312 312 312 311 310 310 309 309 308 308 308 307 307 306 305 305 304 303 301 300 298 297 295 293 291 289 287 285 283 281 279 277 275 273 271 270 269 268 267 266 265 264 263 262 262 261 260 260 260 260 260 260 261 261 261 261 261 261 261 261
310 311 311 312 312 312 313 313 313 314 314 314 315 315 315 315 315 315 315 315 315 315 314 314 314 314 313 313 313 313 312 311 311 311 310 310 310 309 309 308 307 306 305 304 302 301 299 297 296 294 292 291 288 286 284 281 279 277 275 273 271 270 269 267 266 266 265 264 263 262 262 262 261 261 261 261 262 262 262 261 261 261 260 260 260 260
311 311 312 312 313 313 314 314 314 315 315 316 316 316 316 316 316 316 316 316 316 316 316 316 315 315 315 314 314 314 314 313 313 312 312 312 311 311 310 310 309 308 307 305 304 302 300 298 297 295 293 291 289 286 283 281 278 276 274 273 271 270 268 268 267 266 265 265 264 263 263 263 263 263 263 263 263 263 262 261 260 259 259 258 258 257
312 312 313 313 314 314 314 315 316 316 317 317 317 318 318 318 318 318 318 318 318 318 318 318 317 317 316 316 316 316 315 315 314 314 314 313 313 312 312 311 310 309 308 306 305 303 301 299 298 296 293 291 288 286 283 281 279 277 275 273 272 271 270 269 268 268 267 267 266 266 266 266 266 266 265 265 263 262 260 259 258 257 257 256 255 255
313 313 314 314 315 315 316 316 317 318 318 319 319 320 320 320 320 320 320 320 320 320 320 320 319 319 319 318 318 318 317 317 316 316 315 315 314 314 313 312 311 310 309 307 306 304 302 300 298 297 294 292 289 287 285 283 281 279 278 276 275 274 273 272 271 271 270 270 269 269 269 268 267 266 265 263 260 258 257 255 255 255 254 254 254 254
313 314 315 315 316 316 317 318 318 319 320 320 321 321 322 322 322 322 322 322 322 322 322 322 322 322 321 321 321 320 319 319 318 318 317 317 316 316 315 314 313 311 310 308 307 305 304 302 300 298 296 294 292 290 288 286 285 283 281 280 278 277 276 275 275 274 274 273 272 271 270 268 266 264 262 259 256 255 254 253 253 254 254 255 255 256
314 315 315 316 317 317 318 319 320 321 321 322 323 323 323 324 324 324 324 324 324 324 324 324 325 325 325 324 324 323 322 321 321 320 320 319 319 318 317 316 314 313 312 310 308 306 305 303 302 300 298 297 295 293 291 289 288 287 285 284 282 281 280 278 278 277 276 274 273 271 269 266 264 261 259 257 255 255 254 255 255 257 257 258 259 260
Height
10433 10429 10428 10425 10423 10419 10416 10414 10411 10409 10406 10404 10403 10401 10399 10397 10395 10393 10391 10389 10387 10384 10383 10380 10378 10376 10374 10372 10370 10368 10367 10366 10365 10364 10364 10363 10363 10362 10361 10361 10360 10359 10358 10357 10356 10354 10353 10351 10350 10349 10347 10346 10345 10344 10343 10341 10341 10339 10338 10337 10336 10334 10333 10331 10329 10328 10326 10324 10322 10320 10319 10317 10315 10313 10312 10311 10309 10309 10309 10309 10309 10308 10308 10307 10306 10306
10424 10423 10420 10418 10416 10413 10409 10406 10404 10403 10399 10397 10396 10394 10393 10390 10388 10385 10383 10381 10378 10376 10374 10371 10369 10367 10365 10363 10361 10359 10358 10357 10356 10356 10355 10354 10353 10353 10352 10351 10351 10349 10348 10347 10345 10344 10342 10341 10339 10338 10337 10336 10334 10333 10332 10331 10330 10329 10328 10326 10324 10323 10321 10319 10318 10316 10313 10311 10309 10307 10305 10303 10301 10299 10298 10297 10296 10296 10296 10296 10296 10296 10296 10294 10293 10292
10417 10414 10412 10410 10408 10405 10401 10398 10396 10395 10393 10391 10389 10387 10386 10383 10380 10378 10376 10373 10370 10368 10365 10363 10361 10358 10356 10354 10352 10351 10349 10348 10348 10347 10346 10345 10344 10344 10343 10342 10341 10339 10338 10336 10334 10333 10331 10329 10328 10327 10326 10325 10324 10323 10321 10320 10319 10318 10316 10314 10313 10311 10309 10308 10305 10303 10301 10298 10296 10293 10291 10289 10288 10286 10285 10284 10284 10284 10284 10284 10284 10284 10283 10282 10280 10279
10409 10407 10404 10402 10400 10398 10394 10391 10389 10387 10386 10384 10382 10380 10378 10376 10373 10371 10368 10366 10363 10359 10357 10354 10353 10350 10348 10346 10344 10343 10341 10340 10339 10338 10338 10336 10335 10334 10333 10332 10331 10329 10328 10326 10324 10322 10321 10319 10318 10316 10315 10314 10313 10311 10310 10309 10308 10306 10304 10303 10301 10299 10297 10295 10293 10290 10288 10285 10282 10280 10278 10276 10274 10273 10272 10271 10272 10272 10273 10273 10273 10272 10271 10269 10267 10265
10403 10400 10397 10395 10393 10389 10387 10384 10382 10379 10378 10377 10375 10373 10371 10369 10366 10363 10361 10358 10355 10352 10349 10347 10344 10343 10340 10338 10336 10334 10333 10332 10331 10330 10329 10328 10326 10324 10323 10322 10321 10319 10318 10315 10313 10311 10310 10308 10307 10306 10304 10303 10301 10300 10299 10297 10296 10294 10293 10291 10289 10287 10284 10282 10279 10277 10274 10271 10269 10266 10264 10263 10261 10260 10259 10259 10260 10261 10261 10261 10260 10259 10257 10255 10253 10252
10396 10394 10391 10388 10386 10383 10380 10378 10375 10373 10371 10369 10368 10366 10364 10361 10359 10356 10353 10351 10348 10345 10342 10339 10338 10335 10333 10330 10328 10326 10326 10324 10323 10321 10320 10318 10316 10315 10314 10312 10311 10309 10307 10304 10303 10301 10299 10298 10296 10294 10293 10291 10290 10288 10287 10285 10284 10282 10281 10279 10276 10274 10272 10269 10267 10264 10261 10258 10256 10253 10251 10250 10249 10248 10248 10248 10249 10249 10249 10248 10247 10245 10243 10241 10240 10239
10389 10387 10384 10382 10379 10376 10374 10371 10368 10366 10365 10363 10361 10359 10357 10355 10353 10349 10346 10344 10341 10338 10336 10333 10331 10328 10325 10323 10320 10319 10318 10317 10315 10313 10311 10309 10307 10305 10304 10302 10300 10298 10296 10294 10291 10289 10288 10286 10284 10283 10281 10279 10278 10276 10274 10273 10271 10270 10268 10266 10264 10262 10259 10257 10254 10251 10248 10245 10243 10241 10239 10238 10237 10236 10236 10237 10237 10237 10236 10235 10233 10231 10229 10228 10227 10226
10382 10379 10378 10375 10372 10369 10366 10364 10363 10361 10359 10356 10354 10353 10350 10348 10346 10343 10341 10338 10334 10331 10329 10326 10323 10320 10318 10314 10313 10311 10309 10308 10306 10304 10301 10299 10297 10295 10293 10292 10289 10287 10284 10282 10279 10278 10276 10274 10272 10271 10269 10267 10265 10263 10262 10261 10259 10258 10256 10254 10252 10250 10248 10244 10241 10238 10235 10233 10230 10228 10227 10226 10225 10225 10225 10226 10226 10224 10223 10221 10219 10217 10216 10215 10214 10213
10376 10373 10369 10368 10366 10363 10359 10356 10354 10354 10353 10350 10348 10346 10343 10341 10338 10336 10334 10331 10328 10324 10322 10319 10316 10311 10308 10306 10304 10302 10300 10298 10296 10294 10291 10289 10286 10283 10282 10280 10278 10275 10272 10269 10268 10265 10263 10261 10260 10258 10256 10254 10253 10251 10249 10248 10247 10245 10244 10242 10240 10238 10235 10232 10229 10226 10223 10220 10218 10216 10214 10214 10213 10214 10214 10214 10213 10212 10210 10208 10206 10204 10204 10203 10202 10201
10369 10366 10363 10359 10358 10356 10353 10349 10346 10345 10345 10343 10340 10338 10337 10334 10331 10328 10326 10323 10320 10317 10314 10311 10307 10303 10299 10295 10293 10292 10291 10289 10286 10283 10281 10278 10275 10272 10270 10268 10266 10263 10259 10257 10254 10252 10250 10249 10247 10246 10244 10242 10241 10239 10238 10236 10235 10234 10232 10230 10228 10226 10223 10219 10216 10213 10209 10207 10205 10203 10202 10202 10202 10202 10202 10202 10201 10199 10197 10194 10193 10193 10192 10191 10191 10189
10361 10358 10356 10353 10349 10348 10346 10343 10340 10338 10337 10334 10332 10330 10329 10328 10326 10323 10318 10314 10311 10308 10306 10302 10298 10294 10290 10285 10281 10279 10279 10278 10275 10272 10269 10266 10264 10261 10258 10256 10253 10250 10247 10244 10241 10239 10238 10236 10235 10233 10231 10230 10228 10227 10226 10225 10224 10222 10221 10219 10216 10213 10210 10206 10203 10200 10197 10194 10193 10191 10190 10190 10190 10191 10191 10190 10188 10186 10184 10183 10182 10181 10181 10180 10179 10179
10353 10350 10348 10345 10342 10339 10338 10336 10333 10331 10329 10328 10324 10321 10319 10318 10318 10316 10312 10307 10303 10299 10296 10292 10288 10283 10280 10276 10272 10269 10267 10266 10264 10261 10257 10254 10250 10248 10246 10243 10241 10238 10235 10232 10229 10227 10225 10224 10223 10221 10219 10218 10217 10216 10214 10213 10213 10211 10209 10206 10204 10201 10197 10194 10190 10187 10184 10182 10181 10179 10179 10179 10179 10180 10179 10178 10176 10174 10173 10171 10171 10171 10170 10169 10169 10168
10346 10343 10341 10338 10335 10333 10330 10328 10326 10323 10321 10319 10318 10314 10311 10308 10307 10306 10303 10298 10294 10291 10287 10283 10277 10272 10268 10265 10262 10259 10256 10254 10253 10249 10246 10242 10238 10234 10233 10231 10228 10225 10223 10220 10218 10215 10213 10213 10211 10209 10207 10206 10205 10204 10203 10202 10201 10199 10197 10194 10191 10188 10184 10181 10178 10175 10173 10171 10169 10168 10168 10168 10169 10169 10169 10167 10165 10163 10162 10161 10161 10160 10159 10159 10159 10158
10338 10336 10333 10330 10328 10325 10323 10321 10318 10315 10313 10311 10309 10307 10303 10300 10297 10294 10292 10288 10284 10281 10278 10274 10268 10262 10257 10253 10251 10248 10247 10245 10243 10240 10236 10231 10226 10222 10220 10219 10216 10212 10209 10208 10205 10203 10201 10200 10199 10198 10195 10194 10194 10193 10192 10191 10189 10188 10185 10183 10179 10176 10172 10169 10166 10163 10161 10159 10159 10158 10158 10158 10159 10159 10158 10156 10154 10153 10152 10151 10151 10150 10149 10149 10149 10149
10331 10328 10326 10323 10320 10318 10315 10313 10310 10308 10304 10303 10301 10298 10294 10291 10287 10284 10282 10278 10273 10269 10267 10264 10259 10253 10247 10243 10239 10238 10238 10236 10233 10230 10226 10221 10214 10210 10208 10208 10204 10201 10197 10195 10193 10191 10188 10188 10187 10185 10183 10182 10182 10181 10181 10179 10178 10176 10174 10171 10168 10164 10160 10157 10154 10153 10151 10149 10149 10148 10148 10149 10149 10148 10148 10146 10144 10143 10143 10142 10141 10141 10140 10140 10139 10139
10324 10321 10318 10315 10313 10310 10307 10305 10302 10299 10296 10293 10291 10288 10285 10281 10277 10273 10271 10267 10263 10259 10256 10253 10248 10243 10236 10231 10228 10227 10228 10226 10224 10219 10216 10211 10204 10198 10196 10196 10194 10189 10185 10183 10181 10179 10176 10176 10174 10173 10171 10171 10170 10170 10169 10169 10168 10165 10163 10159 10156 10153 10149 10146 10144 10142 10141 10139 10139 10139 10139 10139 10139 10138 10137 10136 10134 10134 10133 10133 10133 10132 10131 10131 10131 10131
10317 10314 10311 10308 10306 10303 10299 10296 10294 10291 10288 10285 10282 10278 10275 10271 10267 10263 10260 10256 10253 10249 10246 10243 10238 10233 10227 10220 10216 10214 10215 10216 10214 10209 10205 10200 10194 10188 10184 10184 10182 10178 10173 10170 10168 10167 10165 10164 10163 10161 10160 10159 10159 10159 10159 10158 10157 10155 10152 10149 10146 10143 10139 10136 10134 10133 10131 10130 10130 10130 10130 10130 10130 10129 10128 10126 10125 10124 10124 10124 10124 10123 10123 10123 10123 10122
10309 10307 10304 10301 10298 10294 10291 10288 10284 10281 10279 10276 10273 10269 10264 10261 10257 10253 10249 10246 10242 10239 10235 10231 10228 10223 10218 10212 10206 10202 10202 10204 10203 10199 10194 10189 10183 10176 10173 10172 10170 10166 10162 10159 10157 10156 10154 10153 10151 10149 10149 10149 10149 10149 10149 10148 10147 10144 10142 10139 10136 10133 10129 10127 10125 10123 10123 10121 10121 10121 10121 10121 10121 10120 10119 10118 10116 10116 10116 10116 10115 10115 10115 10114 10114 10114
10301 10299 10296 10293 10290 10286 10283 10279 10276 10273 10269 10266 10263 10259 10254 10250 10246 10243 10239 10235 10231 10228 10224 10220 10216 10211 10206 10202 10197 10193 10192 10193 10191 10188 10183 10178 10171 10165 10161 10159 10158 10155 10151 10148 10146 10145 10144 10142 10141 10139 10138 10138 10139 10139 10139 10138 10137 10135 10133 10129 10126 10123 10121 10118 10116 10115 10114 10113 10113 10113 10113 10113 10113 10111 10111 10109 10108 10108 10108 10107 10107 10107 10107 10107 10107 10107
10293 10290 10288 10285 10282 10278 10273 10269 10266 10263 10260 10256 10253 10249 10244 10240 10236 10232 10228 10224 10221 10217 10213 10209 10204 10199 10195 10191 10186 10183 10182 10182 10181 10178 10173 10167 10160 10154 10150 10148 10147 10144 10141 10138 10136 10135 10134 10133 10131 10129 10129 10129 10129 10129 10129 10129 10128 10126 10123 10121 10118 10114 10112 10109 10108 10107 10106 10105 10105 10105 10104 10104 10104 10104 10103 10101 10101 10100 10099 10099 10099 10099 10099 10099 10099 10099
10285 10281 10278 10276 10274 10269 10264 10259 10256 10253 10249 10246 10243 10238 10234 10230 10226 10221 10217 10213 10210 10206 10202 10198 10193 10188 10183 10179 10176 10172 10171 10171 10169 10166 10162 10156 10149 10143 10139 10138 10136 10133 10130 10128 10126 10126 10124 10123 10121 10120 10120 10120 10121 10121 10121 10120 10119 10117 10114 10112 10109 10106 10104 10101 10100 10099 10098 10098 10098 10098 10097 10097 10097 10096 10095 10094 10093 10093 10093 10093 10093 10093 10093 10093 10093 10093
10277 10273 10268 10266 10263 10259 10255 10250 10246 10242 10239 10236 10233 10228 10224 10219 10215 10211 10206 10203 10199 10195 10190 10186 10181 10176 10172 10168 10164 10161 10160 10160 10159 10156 10152 10146 10139 10133 10129 10128 10126 10124 10121 10118 10116 10116 10114 10113 10112 10111 10111 10112 10113 10113 10113 10111 10110 10108 10106 10104 10101 10099 10096 10094 10093 10091 10091 10091 10091 10090 10090 10090 10089 10089 10088 10088 10086 10086 10086 10086 10086 10086 10086 10086 10086 10086
10268 10264 10259 10256 10253 10249 10245 10241 10236 10232 10228 10225 10222 10218 10213 10209 10205 10200 10196 10192 10188 10184 10179 10174 10169 10165 10161 10157 10153 10150 10149 10149 10149 10147 10143 10137 10130 10124 10120 10118 10117 10114 10111 10109 10107 10106 10105 10104 10103 10102 10103 10103 10104 10104 10104 10104 10103 10101 10099 10096 10094 10091 10089 10087 10085 10084 10084 10084 10084 10084 10083 10083 10083 10082 10081 10081 10080 10079 10079 10079 10079 10079 10079 10079 10079 10079
10258 10254 10250 10246 10242 10238 10234 10230 10226 10221 10218 10214 10211 10207 10203 10199 10195 10190 10186 10181 10178 10174 10169 10164 10159 10154 10150 10146 10143 10140 10139 10139 10139 10138 10134 10128 10121 10116 10111 10109 10108 10105 10102 10100 10098 10097 10096 10094 10093 10093 10094 10094 10096 10096 10096 10096 10095 10093 10091 10089 10087 10084 10082 10080 10078 10078 10077 10077 10077 10077 10077 10077 10076 10076 10075 10074 10074 10074 10073 10073 10073 10073 10073 10073 10073 10074
10249 10245 10241 10236 10232 10228 10224 10219 10216 10212 10208 10205 10201 10198 10193 10188 10183 10179 10175 10171 10168 10164 10160 10156 10151 10146 10141 10137 10133 10130 10129 10129 10130 10129 10125 10120 10114 10108 10104 10101 10099 10097 10094 10092 10090 10088 10087 10085 10084 10084 10084 10086 10088 10088 10089 10089 10088 10087 10085 10083 10081 10078 10076 10074 10072 10071 10070 10071 10071 10071 10071 10071 10070 10070 10069 10069 10068 10068 10068 10068 10068 10067 10068 10068 10068 10068
10240 10236 10231 10227 10223 10218 10214 10210 10206 10202 10198 10194 10190 10186 10181 10177 10173 10168 10164 10161 10158 10154 10150 10146 10141 10137 10133 10129 10124 10121 10120 10120 10121 10120 10117 10112 10106 10101 10096 10094 10093 10090 10087 10084 10083 10081 10079 10077 10076 10076 10076 10078 10079 10080 10081 10081 10081 10081 10079 10077 10074 10072 10070 10068 10066 10064 10064 10064 10064 10065 10065 10065 10064 10064 10064 10063 10063 10063 10063 10062 10062 10062 10062 10062 10062 10062
10230 10226 10221 10217 10213 10208 10204 10200 10196 10192 10188 10184 10181 10177 10173 10168 10164 10159 10154 10151 10148 10144 10141 10136 10133 10128 10124 10120 10116 10113 10111 10111 10112 10111 10109 10104 10099 10094 10089 10088 10086 10083 10081 10078 10076 10073 10071 10069 10069 10069 10069 10069 10071 10073 10074 10074 10074 10074 10073 10071 10069 10066 10064 10062 10060 10059 10058 10058 10058 10059 10059 10059 10059 10059 10059 10058 10058 10058 10058 10057 10057 10057 10057 10057 10057 10056
10221 10216 10212 10208 10203 10199 10194 10190 10186 10183 10179 10175 10171 10168 10164 10160 10156 10151 10146 10143 10139 10135 10131 10128 10124 10120 10116 10112 10108 10104 10103 10102 10103 10103 10101 10096 10091 10087 10083 10081 10078 10076 10074 10071 10069 10067 10064 10063 10062 10062 10062 10063 10063 10064 10066 10068 10068 10068 10067 10065 10063 10060 10058 10056 10054 10053 10052 10052 10053 10053 10054 10054 10054 10054 10054 10053 10053 10053 10053 10052 10052 10052 10052 10052 10051 10051
10211 10207 10203 10198 10194 10189 10186 10181 10177 10173 10169 10166 10162 10159 10155 10151 10148 10143 10138 10134 10131 10127 10123 10119 10116 10113 10108 10104 10101 10097 10094 10094 10094 10094 10093 10088 10084 10080 10077 10074 10071 10070 10068 10066 10063 10060 10058 10056 10056 10056 10056 10056 10057 10058 10059 10061 10061 10061 10061 10059 10056 10054 10053 10051 10049 10048 10046 10046 10046 10048 10048 10049 10049 10049 10049 10048 10048 10048 10048 10048 10048 10048 10047 10046 10046 10046
10201 10197 10193 10188 10184 10180 10176 10172 10168 10164 10160 10157 10153 10149 10146 10143 10139 10135 10131 10127 10123 10119 10116 10112 10108 10105 10101 10098 10094 10090 10087 10086 10087 10087 10084 10081 10076 10073 10071 10068 10065 10063 10062 10059 10057 10054 10051 10049 10049 10049 10050 10050 10050 10051 10052 10054 10054 10054 10054 10053 10051 10048 10046 10044 10043 10041 10041 10041 10041 10042 10043 10044 10044 10044 10044 10044 10043 10043 10043 10043 10043 10043 10042 10042 10041 10041
10191 10187 10183 10178 10174 10171 10167 10163 10159 10155 10151 10148 10144 10141 10137 10134 10130 10127 10123 10119 10116 10113 10108 10104 10101 10098 10094 10091 10088 10084 10081 10079 10079 10079 10078 10073 10069 10066 10064 10061 10058 10057 10056 10054 10052 10049 10046 10044 10043 10043 10044 10044 10044 10045 10046 10047 10048 10048 10048 10046 10044 10042 10041 10039 10037 10036 10035 10035 10036 10036 10038 10039 10039 10039 10039 10039 10038 10038 10038 10038 10038 10038 10038 10037 10037 10036
10183 10179 10174 10170 10166 10162 10158 10154 10150 10146 10143 10139 10136 10132 10129 10125 10122 10119 10115 10112 10108 10105 10101 10098 10094 10091 10088 10085 10081 10078 10075 10073 10073 10072 10070 10066 10063 10060 10058 10054 10051 10050 10049 10048 10046 10044 10041 10038 10037 10036 10037 10038 10038 10039 10039 10041 10041 10041 10041 10039 10038 10036 10034 10033 10031 10030 10029 10029 10030 10031 10033 10034 10034 10034 10034 10034 10034 10033 10033 10033 10033 10033 10033 10033 10032 10032
10176 10171 10167 10163 10158 10154 10150 10146 10143 10138 10134 10131 10128 10124 10121 10118 10114 10111 10108 10104 10101 10098 10094 10091 10088 10084 10081 10079 10076 10073 10069 10068 10066 10065 10063 10059 10056 10053 10051 10048 10045 10043 10043 10041 10040 10039 10037 10034 10032 10031 10030 10031 10031 10033 10033 10034 10035 10035 10034 10033 10031 10029 10028 10026 10026 10024 10024 10024 10025 10026 10028 10029 10029 10029 10029 10029 10029 10029 10029 10029 10029 10029 10028 10028 10028 10028
10168 10164 10160 10156 10151 10147 10143 10139 10135 10131 10128 10124 10121 10117 10114 10110 10107 10103 10100 10097 10094 10091 10088 10085 10081 10078 10076 10073 10070 10067 10064 10062 10060 10059 10056 10053 10050 10046 10044 10041 10039 10038 10036 10035 10034 10033 10032 10030 10028 10026 10025 10024 10024 10026 10027 10028 10029 10028 10028 10026 10024 10023 10021 10020 10019 10019 10019 10019 10020 10021 10023 10024 10025 10025 10025 10024 10024 10024 10024 10024 10024 10024 10024 10024 10024 10024
10161 10158 10153 10149 10144 10140 10136 10132 10129 10125 10121 10118 10114 10111 10107 10104 10100 10097 10094 10091 10088 10085 10082 10079 10076 10073 10070 10068 10064 10061 10058 10056 10053 10051 10049 10047 10044 10041 10038 10035 10033 10032 10031 10029 10029 10028 10026 10025 10024 10022 10021 10019 10019 10019 10020 10021 10022 10022 10021 10020 10018 10016 10015 10014 10014 10014 10014 10014 10015 10017 10018 10019 10020 10020 10020 10020 10019 10019 10019 10019 10020 10020 10020 10020 10020 10019
10155 10151 10147 10143 10138 10134 10129 10126 10123 10119 10115 10112 10108 10105 10101 10098 10094 10091 10088 10084 10082 10079 10076 10073 10071 10068 10065 10063 10059 10056 10053 10049 10046 10044 10042 10040 10038 10035 10032 10029 10028 10027 10026 10024 10023 10023 10021 10019 10018 10017 10016 10014 10014 10013 10014 10015 10016 10016 10014 10013 10012 10010 10009 10009 10008 10009 10009 10010 10011 10013 10014 10015 10016 10016 10016 10015 10015 10015 10015 10016 10016 10016 10016 10016 10016 10016
10149 10144 10140 10136 10132 10128 10124 10120 10116 10113 10109 10106 10103 10099 10096 10092 10088 10085 10082 10079 10076 10073 10070 10067 10064 10062 10059 10057 10054 10051 10048 10044 10041 10038 10035 10033 10031 10029 10027 10024 10023 10023 10021 10020 10019 10017 10016 10014 10013 10011 10011 10009 10009 10008 10008 10009 10009 10009 10008 10007 10006 10004 10004 10004 10004 10004 10004 10006 10007 10009 10010 10011 10011 10011 10011 10011 10011 10011 10011 10012 10012 10013 10013 10013 10013 10012
10143 10138 10134 10130 10126 10122 10118 10114 10111 10108 10104 10101 10097 10094 10090 10086 10083 10079 10076 10073 10070 10068 10064 10061 10058 10056 10053 10051 10049 10046 10043 10039 10035 10032 10029 10027 10026 10024 10022 10020 10018 10018 10017 10016 10014 10013 10011 10009 10008 10006 10005 10004 10004 10004 10004 10004 10004 10003 10003 10001 10001 10000 9999 9999 9999 10000 10001 10002 10003 10004 10006 10006 10006 10006 10006 10006 10006 10007 10008 10008 10009 10009 10009 10009 10008 10008
10136 10132 10128 10124 10121 10117 10113 10109 10106 10103 10099 10096 10093 10089 10085 10081 10077 10074 10070 10068 10064 10062 10059 10056 10053 10049 10048 10045 10043 10041 10038 10034 10030 10026 10024 10022 10020 10019 10018 10016 10014 10013 10012 10011 10009 10008 10006 10004 10003 10001 10000 9999 9999 9999 9999 9999 9999 9998 9997 9996 9996 9996 9996 9996 9996 9996 9997 9998 9999 10001 10002 10002 10002 10002 10002 10002 10003 10003 10004 10004 10005 10006 10005 10005 10004 10004
10131 10126 10123 10119 10115 10112 10108 10104 10101 10098 10094 10091 10088 10084 10080 10076 10072 10068 10065 10062 10059 10056 10053 10050 10047 10044 10042 10040 10038 10035 10032 10028 10025 10021 10019 10017 10016 10014 10013 10012 10010 10008 10007 10006 10004 10003 10001 9999 9998 9997 9996 9996 9996 9995 9995 9994 9994 9993 9993 9993 9992 9992 9992 9992 9992 9993 9994 9995 9996 9997 9998 9998 9998 9998 9998 9999 9999 10000 10001 10001 10001 10001 10001 10001 10001 10000
10125 10121 10117 10114 10110 10107 10104 10100 10097 10093 10089 10086 10083 10079 10075 10071 10068 10063 10060 10057 10054 10051 10048 10046 10043 10039 10037 10035 10033 10031 10028 10024 10020 10017 10014 10013 10011 10011 10009 10008 10006 10004 10003 10001 10000 9999 9998 9996 9994 9993 9993 9993 9992 9991 9991 9990 9989 9989 9989 9989 9989 9989 9988 9988 9989 9989 9990 9991 9993 9993 9994 9994 9994 9994 9995 9996 9996 9996 9997 9998 9998 9998 9998 9997 9997 9996
10119 10116 10112 10109 10105 10102 10099 10095 10092 10089 10086 10083 10079 10075 10071 10067 10063 10059 10056 10053 10049 10046 10043 10041 10038 10035 10033 10031 10028 10026 10023 10019 10016 10013 10011 10009 10008 10007 10005 10004 10002 10001 9999 9998 9996 9994 9994 9993 9991 9990 9989 9989 9988 9988 9987 9986 9986 9986 9985 9985 9986 9985 9985 9985 9985 9986 9987 9988 9989 9990 9990 9991 9991 9991 9992 9992 9993 9993 9994 9994 9994 9994 9994 9993 9993 9993
10114 10111 10108 10104 10101 10098 10094 10091 10088 10084 10081 10078 10075 10071 10068 10063 10059 10056 10052 10048 10045 10042 10039 10036 10033 10030 10028 10026 10024 10021 10019 10016 10013 10009 10008 10006 10004 10003 10002 10000 9998 9997 9996 9994 9993 9991 9990 9989 9988 9987 9986 9986 9985 9984 9983 9983 9983 9982 9982 9983 9983 9983 9982 9982 9983 9983 9984 9985 9986 9986 9987 9987 9988 9988 9989 9989 9989 9989 9990 9990 9990 9990 9990 9990 9990 9989
10109 10106 10103 10100 10097 10093 10090 10087 10084 10081 10078 10074 10071 10067 10063 10059 10056 10052 10049 10045 10041 10038 10035 10032 10029 10026 10024 10022 10019 10018 10014 10012 10009 10006 10004 10003 10001 10000 9998 9997 9995 9994 9993 9991 9990 9988 9987 9986 9985 9984 9983 9983 9982 9981 9981 9980 9980 9979 9979 9979 9979 9979 9979 9979 9980 9981 9981 9982 9983 9983 9984 9984 9984 9985 9985 9986 9986 9986 9987 9987 9987 9987 9987 9987 9986 9986
10105 10102 10099 10096 10093 10089 10086 10083 10080 10077 10074 10071 10067 10063 10059 10056 10052 10049 10045 10041 10038 10035 10032 10029 10026 10023 10020 10018 10016 10014 10011 10009 10006 10004 10002 10000 9998 9997 9996 9994 9993 9991 9989 9988 9987 9986 9984 9983 9982 9981 9981 9980 9979 9979 9978 9978 9978 9978 9977 9977 9977 9977 9977 9977 9978 9978 9979 9979 9979 9980 9981 9981 9981 9982 9983 9983 9983 9984 9984 9984 9984 9984 9984 9983 9983 9983
10101 10098 10095 10092 10089 10086 10083 10079 10076 10073 10069 10066 10063 10059 10056 10052 10048 10044 10041 10038 10034 10031 10028 10026 10023 10020 10017 10014 10013 10011 10008 10006 10003 10001 9999 9998 9996 9994 9993 9991 9990 9988 9987 9986 9984 9983 9982 9981 9980 9979 9978 9978 9977 9976 9976 9976 9976 9975 9974 9974 9974 9974 9974 9974 9975 9976 9976 9976 9977 9978 9978 9978 9979 9979 9980 9981 9981 9981 9981 9981 9981 9981 9980 9980 9980 9980
10098 10094 10091 10088 10085 10082 10079 10076 10072 10069 10066 10063 10059 10056 10052 10048 10044 10041 10038 10034 10031 10028 10025 10023 10020 10017 10014 10012 10009 10008 10006 10003 10001 9999 9997 9995 9993 9992 9990 9989 9988 9986 9985 9983 9982 9981 9980 9979 9978 9978 9977 9976 9975 9974 9974 9974 9973 9973 9973 9973 9973 9973 9973 9973 9973 9973 9974 9974 9974 9975 9975 9976 9976 9977 9978 9978 9978 9978 9978 9978 9978 9977 9977 9977 9977 9977
10094 10091 10088 10084 10081 10078 10075 10071 10068 10065 10061 10058 10055 10051 10048 10044 10041 10038 10034 10031 10028 10026 10023 10020 10017 10014 10012 10009 10008 10005 10003 10001 9999 9997 9995 9993 9991 9990 9988 9987 9986 9984 9983 9981 9980 9979 9978 9977 9976 9976 9975 9974 9974 9973 9972 9972 9971 9971 9971 9971 9971 9971 9971 9971 9971 9971 9972 9972 9973 9973 9973 9974 9974 9975 9976 9976 9976 9976 9975 9974 9974 9974 9974 9974 9974 9974
10091 10088 10084 10081 10078 10074 10071 10068 10064 10061 10058 10054 10051 10048 10044 10041 10038 10034 10031 10028 10025 10023 10020 10017 10014 10012 10009 10007 10005 10003 10001 9999 9997 9995 9993 9991 9989 9988 9986 9985 9984 9983 9981 9980 9979 9978 9977 9976 9975 9974 9973 9973 9972 9971 9971 9970 9970 9970 9969 9969 9969 9969 9969 9969 9969 9969 9970 9970 9971 9971 9971 9972 9973 9973 9973 9973 9973 9972 9972 9971 9971 9971 9971 9971 9971 9971
10088 10084 10081 10078 10074 10071 10068 10064 10061 10057 10054 10051 10048 10044 10041 10038 10034 10032 10029 10026 10023 10020 10018 10015 10013 10010 10008 10005 10003 10001 9999 9997 9995 9993 9991 9990 9988 9987 9985 9984 9983 9981 9979 9978 9978 9976 9976 9974 9974 9973 9973 9972 9971 9971 9969 9969 9969 9969 9968 9968 9968 9968 9968 9968 9968 9968 9968 9969 9969 9969 9969 9969 9970 9970 9970 9970 9969 9969 9969 9968 9968 9968 9968 9968 9968 9968
10084 10081 10078 10074 10071 10068 10064 10061 10057 10054 10050 10047 10044 10041 10038 10035 10032 10029 10026 10023 10021 10018 10015 10013 10011 10008 10006 10004 10001 9999 9998 9996 9994 9992 9990 9989 9987 9986 9984 9983 9981 9980 9979 9978 9976 9975 9974 9974 9973 9972 9971 9971 9970 9969 9969 9968 9968 9968 9968 9967 9967 9967 9967 9967 9967 9967 9967 9967 9967 9967 9967 9967 9967 9967 9967 9967 9967 9966 9966 9966 9966 9966 9966 9966 9966 9966